Главная страница
METAR-TAF:

METAR-TAF

Аэропорты :

Синт-Эстатиус, Нидерландские Антильские острова

широта: 17-29N, долгота: 062-59W, высота над уровнем моря: 38 м

Текущие метеонаблюдения

Эта сводка был подготовлена 51 минут назад, в 17:55 UTC
Ветер 8 Узел от восточный, изменяющийся между северо-северо-восточный и юго-восточный
Температура 27°C
Влажность 70%
Давление 1017 hPa

METAR: TNCE 121755Z AUTO 08008KT 030V130 //// // ///////// 27/21 Q1017 RE//

Время: 14:46 (18:46 UTC)


TAF: отсутствует

Метеонаблюдения и прогнозы для более 4000 аэропортов (сводки METAR и TAF).

Имеющиеся станции представлены на карте желтыми и красными точками.

Чтобы увидеть название станции, наведите на нее мышь.

Затем щелкните, чтобы увидеть метеонаблюдения и метеопрогнозы.

Управление картой: чтобы увеличить масштаб, щелкните зеленые кнопки с черным крестиком; чтобы уменьшить масштаб, щелкните зеленую кнопку с тире; для просмотра соседних карт щелкайте зеленые стрелки.


METAR-TAF: